JAT762 SCEL-SUMU

Flight info

Callsign JAT762
Flight time 1h 38m
Altitude 37000
Route ALBAL7C ALBAL UM424 TOKAM
Aircraft A320/M-SDE3FGHIRWY/LB1

Departure

Time 2026-04-24 14:57
Airport Comodoro Arturo Merino Benítez International Airport (SCEL)

Arrival

Time 2026-04-24 16:35
Airport Carrasco General Cesáreo L. Berisso International Airport (SUMU)
Time Latitude Longitude Altitude Speed Heading
2026-04-24 14:41 -33.39741 -70.79735 1566 ft 0 kts 358°
2026-04-24 14:47 -33.39754 -70.79735 1565 ft 4 kts 356°
2026-04-24 14:47 -33.39790 -70.79730 1565 ft 4 kts 346°
2026-04-24 14:47 -33.39813 -70.79719 1565 ft 4 kts 307°
2026-04-24 14:47 -33.39819 -70.79706 1565 ft 0 kts 267°
2026-04-24 14:51 -33.39820 -70.79738 1565 ft 8 kts 266°
2026-04-24 14:51 -33.39823 -70.79797 1565 ft 3 kts 267°
2026-04-24 14:51 -33.39827 -70.79853 1565 ft 11 kts 255°
2026-04-24 14:52 -33.39846 -70.79964 1565 ft 12 kts 266°
2026-04-24 14:52 -33.39781 -70.80029 1566 ft 18 kts 353°
2026-04-24 14:52 -33.39639 -70.80037 1566 ft 22 kts 358°
2026-04-24 14:52 -33.39480 -70.80042 1566 ft 24 kts 358°
2026-04-24 14:53 -33.39313 -70.80055 1566 ft 25 kts 356°
2026-04-24 14:53 -33.39131 -70.80065 1566 ft 27 kts 357°
2026-04-24 14:53 -33.38946 -70.80079 1567 ft 27 kts 356°
2026-04-24 14:53 -33.38751 -70.80090 1567 ft 29 kts 358°
2026-04-24 14:54 -33.38547 -70.80098 1567 ft 30 kts 358°
2026-04-24 14:54 -33.38335 -70.80109 1566 ft 31 kts 357°
2026-04-24 14:54 -33.38115 -70.80123 1566 ft 32 kts 357°
2026-04-24 14:54 -33.37888 -70.80129 1566 ft 33 kts 358°
2026-04-24 14:55 -33.37731 -70.80140 1566 ft 33 kts 356°
2026-04-24 14:55 -33.37420 -70.80158 1567 ft 34 kts 358°
2026-04-24 14:55 -33.37191 -70.80170 1567 ft 21 kts 354°
2026-04-24 14:55 -33.37109 -70.80287 1572 ft 19 kts 267°
2026-04-24 14:56 -33.37208 -70.80372 1573 ft 29 kts 181°
2026-04-24 14:56 -33.37643 -70.80352 1572 ft 94 kts 178°
2026-04-24 14:56 -33.38470 -70.80304 1574 ft 142 kts 177°
2026-04-24 14:56 -33.39589 -70.80244 1619 ft 177 kts 178°
2026-04-24 14:57 -33.40901 -70.80236 1852 ft 201 kts 181°
2026-04-24 14:57 -33.42370 -70.80299 2256 ft 220 kts 181°
2026-04-24 14:57 -33.43985 -70.80228 2675 ft 244 kts 177°
2026-04-24 14:57 -33.45740 -70.80082 3366 ft 258 kts 176°
2026-04-24 14:58 -33.47525 -70.79926 4248 ft 263 kts 176°
2026-04-24 14:58 -33.49374 -70.79778 5108 ft 269 kts 176°
2026-04-24 14:58 -33.51266 -70.79641 5889 ft 276 kts 177°
2026-04-24 14:58 -33.53210 -70.79514 6679 ft 282 kts 177°
2026-04-24 14:59 -33.55179 -70.79330 7424 ft 287 kts 175°
2026-04-24 14:59 -33.56507 -70.79173 7924 ft 290 kts 175°
2026-04-24 14:59 -33.59228 -70.78825 8919 ft 297 kts 174°
2026-04-24 14:59 -33.61303 -70.78556 9658 ft 303 kts 175°
2026-04-24 15:00 -33.63424 -70.78283 10295 ft 312 kts 175°
2026-04-24 15:00 -33.65665 -70.78002 10489 ft 336 kts 175°
2026-04-24 15:00 -33.67240 -70.77809 10620 ft 349 kts 175°
2026-04-24 15:00 -33.69694 -70.77509 11128 ft 358 kts 175°
2026-04-24 15:01 -33.72185 -70.77206 11798 ft 361 kts 175°
2026-04-24 15:01 -33.74690 -70.76905 12494 ft 363 kts 176°
2026-04-24 15:01 -33.77212 -70.76582 13171 ft 366 kts 173°
2026-04-24 15:01 -33.79678 -70.75755 13812 ft 372 kts 158°
2026-04-24 15:02 -33.81931 -70.74200 14392 ft 377 kts 143°
2026-04-24 15:02 -33.83821 -70.72001 14966 ft 381 kts 129°
2026-04-24 15:02 -33.85227 -70.69290 15516 ft 385 kts 115°
2026-04-24 15:02 -33.86359 -70.66349 16066 ft 388 kts 115°
2026-04-24 15:03 -33.87493 -70.63385 16612 ft 392 kts 115°
2026-04-24 15:03 -33.88638 -70.60392 17164 ft 396 kts 116°
2026-04-24 15:03 -33.89790 -70.57372 17704 ft 399 kts 116°
2026-04-24 15:03 -33.90955 -70.54312 18250 ft 403 kts 116°
2026-04-24 15:04 -33.92125 -70.51228 18769 ft 407 kts 116°
2026-04-24 15:04 -33.93312 -70.48102 19211 ft 412 kts 116°
2026-04-24 15:04 -33.94511 -70.44953 19686 ft 416 kts 116°
2026-04-24 15:04 -33.95720 -70.41770 20173 ft 420 kts 116°
2026-04-24 15:05 -33.96940 -70.38561 20611 ft 423 kts 116°
2026-04-24 15:05 -33.98176 -70.35308 21037 ft 427 kts 116°
2026-04-24 15:05 -33.99404 -70.32077 21529 ft 431 kts 116°
2026-04-24 15:05 -34.00657 -70.28781 21967 ft 434 kts 116°
2026-04-24 15:06 -34.01913 -70.25459 22371 ft 437 kts 116°
2026-04-24 15:06 -34.03177 -70.22104 22835 ft 441 kts 116°
2026-04-24 15:06 -34.04447 -70.18727 23243 ft 445 kts 116°
2026-04-24 15:06 -34.05732 -70.15311 23690 ft 449 kts 116°
2026-04-24 15:07 -34.07027 -70.11869 23957 ft 452 kts 117°
2026-04-24 15:07 -34.08329 -70.08403 24285 ft 455 kts 117°
2026-04-24 15:07 -34.09640 -70.04911 24677 ft 458 kts 117°
2026-04-24 15:07 -34.10961 -70.01400 25054 ft 460 kts 117°
2026-04-24 15:08 -34.12289 -69.97868 25421 ft 464 kts 117°
2026-04-24 15:08 -34.13619 -69.94315 25779 ft 467 kts 117°
2026-04-24 15:08 -34.14956 -69.90733 26127 ft 469 kts 117°
2026-04-24 15:08 -34.16303 -69.87127 26491 ft 472 kts 117°
2026-04-24 15:09 -34.17623 -69.83491 26879 ft 474 kts 113°
2026-04-24 15:09 -34.18588 -69.79664 27285 ft 478 kts 104°
2026-04-24 15:09 -34.19165 -69.75700 27592 ft 481 kts 101°
2026-04-24 15:09 -34.19707 -69.71706 27938 ft 483 kts 101°
2026-04-24 15:10 -34.20258 -69.67690 28279 ft 486 kts 101°
2026-04-24 15:10 -34.20815 -69.63653 28598 ft 488 kts 101°
2026-04-24 15:10 -34.21378 -69.59595 28936 ft 491 kts 101°
2026-04-24 15:10 -34.21944 -69.55521 29245 ft 494 kts 101°
2026-04-24 15:11 -34.22505 -69.51471 29552 ft 495 kts 101°
2026-04-24 15:11 -34.23067 -69.47371 30031 ft 494 kts 101°
2026-04-24 15:11 -34.23623 -69.43275 30477 ft 493 kts 101°
2026-04-24 15:11 -34.24173 -69.39193 30799 ft 493 kts 101°
2026-04-24 15:12 -34.24725 -69.35089 31171 ft 493 kts 101°
2026-04-24 15:12 -34.25827 -69.26908 31909 ft 493 kts 101°
2026-04-24 15:12 -34.26379 -69.22813 32263 ft 493 kts 101°
2026-04-24 15:13 -34.26929 -69.18721 32647 ft 493 kts 101°
2026-04-24 15:13 -34.27480 -69.14618 32979 ft 494 kts 101°
2026-04-24 15:13 -34.28028 -69.10515 33318 ft 495 kts 101°
2026-04-24 15:13 -34.28573 -69.06407 33695 ft 495 kts 101°
2026-04-24 15:14 -34.29115 -69.02291 34074 ft 495 kts 101°
2026-04-24 15:14 -34.29648 -68.98236 34358 ft 495 kts 101°
2026-04-24 15:14 -34.30188 -68.94117 34625 ft 496 kts 101°
2026-04-24 15:14 -34.30724 -68.89989 34872 ft 498 kts 101°
2026-04-24 15:15 -34.31260 -68.85845 35101 ft 499 kts 101°
2026-04-24 15:15 -34.31798 -68.81691 35362 ft 500 kts 100°
2026-04-24 15:15 -34.32335 -68.77538 35598 ft 500 kts 100°
2026-04-24 15:15 -34.32873 -68.73378 35826 ft 501 kts 100°
2026-04-24 15:16 -34.33412 -68.69201 36048 ft 503 kts 100°
2026-04-24 15:16 -34.33951 -68.65006 36303 ft 504 kts 100°
2026-04-24 15:16 -34.34487 -68.60813 36507 ft 505 kts 100°
2026-04-24 15:16 -34.35023 -68.56605 36704 ft 507 kts 100°
2026-04-24 15:17 -34.35557 -68.52384 36900 ft 508 kts 100°
2026-04-24 15:17 -34.36092 -68.48158 37053 ft 510 kts 100°
2026-04-24 15:17 -34.37179 -68.39594 37081 ft 519 kts 100°
2026-04-24 15:18 -34.38263 -68.30980 37081 ft 522 kts 100°
2026-04-24 15:18 -34.39346 -68.22284 37081 ft 522 kts 100°
2026-04-24 15:19 -34.40428 -68.13585 37081 ft 522 kts 100°
2026-04-24 15:19 -34.41509 -68.04878 37084 ft 523 kts 99°
2026-04-24 15:20 -34.42576 -67.96165 37097 ft 523 kts 99°
2026-04-24 15:20 -34.43635 -67.87428 37097 ft 523 kts 99°
2026-04-24 15:21 -34.44686 -67.78699 37100 ft 524 kts 99°
2026-04-24 15:21 -34.45714 -67.69959 37102 ft 524 kts 99°
2026-04-24 15:22 -34.46724 -67.61214 37105 ft 524 kts 99°
2026-04-24 15:23 -34.48234 -67.48080 37110 ft 525 kts 99°
2026-04-24 15:23 -34.49732 -67.34928 37109 ft 525 kts 99°
2026-04-24 15:25 -34.51906 -67.15633 37107 ft 524 kts 99°
2026-04-24 15:26 -34.54262 -66.94292 37118 ft 523 kts 98°
2026-04-24 15:27 -34.57117 -66.68053 37123 ft 522 kts 98°
2026-04-24 15:29 -34.59911 -66.41892 37109 ft 521 kts 98°
2026-04-24 15:31 -34.63093 -66.11361 37107 ft 520 kts 98°
2026-04-24 15:33 -34.66641 -65.76459 37108 ft 520 kts 97°
2026-04-24 15:34 -34.68779 -65.54730 37129 ft 519 kts 97°
2026-04-24 15:35 -34.70909 -65.32969 37120 ft 518 kts 97°
2026-04-24 15:36 -34.71741 -65.24262 37096 ft 518 kts 97°
2026-04-24 15:36 -34.72977 -65.11206 37099 ft 518 kts 97°
2026-04-24 15:37 -34.73799 -65.02497 37101 ft 518 kts 97°
2026-04-24 15:37 -34.74605 -64.93781 37097 ft 518 kts 97°
2026-04-24 15:38 -34.75406 -64.85118 37101 ft 519 kts 97°
2026-04-24 15:38 -34.76210 -64.76388 37126 ft 519 kts 97°
2026-04-24 15:39 -34.77007 -64.67675 37120 ft 518 kts 97°
2026-04-24 15:39 -34.77799 -64.58957 37117 ft 518 kts 97°
2026-04-24 15:40 -34.78590 -64.50250 37116 ft 518 kts 97°
2026-04-24 15:40 -34.79389 -64.41504 37099 ft 525 kts 97°
2026-04-24 15:41 -34.80193 -64.32561 37096 ft 537 kts 96°
2026-04-24 15:41 -34.80995 -64.23481 37103 ft 541 kts 96°
2026-04-24 15:42 -34.81791 -64.14363 37100 ft 541 kts 96°
2026-04-24 15:42 -34.82584 -64.05253 37096 ft 541 kts 96°
2026-04-24 15:43 -34.83373 -63.96220 37099 ft 540 kts 96°
2026-04-24 15:43 -34.84155 -63.87117 37100 ft 540 kts 96°
2026-04-24 15:44 -34.84922 -63.78012 37101 ft 540 kts 96°
2026-04-24 15:44 -34.85691 -63.68910 37099 ft 541 kts 96°
2026-04-24 15:45 -34.86461 -63.59803 37103 ft 541 kts 96°
2026-04-24 15:45 -34.87212 -63.50682 37107 ft 541 kts 96°
2026-04-24 15:46 -34.87964 -63.41555 37100 ft 541 kts 96°
2026-04-24 15:46 -34.88591 -63.33969 37127 ft 541 kts 96°
2026-04-24 15:47 -34.89336 -63.24838 37122 ft 541 kts 96°
2026-04-24 15:47 -34.90074 -63.15705 37118 ft 541 kts 95°
2026-04-24 15:48 -34.90794 -63.06574 37111 ft 541 kts 95°
2026-04-24 15:48 -34.91509 -62.97445 37111 ft 541 kts 95°
2026-04-24 15:49 -34.92223 -62.88372 37115 ft 541 kts 95°
2026-04-24 15:49 -34.92941 -62.79222 37103 ft 542 kts 95°
2026-04-24 15:50 -34.93644 -62.70080 37105 ft 542 kts 95°
2026-04-24 15:50 -34.94335 -62.60980 37131 ft 542 kts 95°
2026-04-24 15:51 -34.95015 -62.51816 37122 ft 542 kts 95°
2026-04-24 15:51 -34.95686 -62.42668 37118 ft 542 kts 95°
2026-04-24 15:52 -34.96349 -62.33501 37117 ft 542 kts 95°
2026-04-24 15:52 -34.96915 -62.24338 37118 ft 542 kts 92°
2026-04-24 15:53 -34.97197 -62.15153 37110 ft 542 kts 90°
2026-04-24 15:53 -34.97384 -62.05961 37114 ft 543 kts 91°
2026-04-24 15:54 -34.97637 -61.96805 37116 ft 543 kts 91°
2026-04-24 15:54 -34.97947 -61.87604 37141 ft 543 kts 91°
2026-04-24 15:55 -34.98249 -61.78393 37136 ft 543 kts 91°
2026-04-24 15:55 -34.98525 -61.69184 37131 ft 543 kts 91°
2026-04-24 15:56 -34.98781 -61.59980 37127 ft 543 kts 91°
2026-04-24 15:56 -34.99032 -61.50782 37127 ft 543 kts 91°
2026-04-24 15:57 -34.99269 -61.41637 37131 ft 543 kts 91°
2026-04-24 15:57 -34.99506 -61.32426 37119 ft 543 kts 91°
2026-04-24 15:58 -34.99737 -61.23232 37122 ft 543 kts 90°
2026-04-24 15:58 -34.99956 -61.14029 37128 ft 543 kts 90°
2026-04-24 15:59 -35.00168 -61.04823 37161 ft 543 kts 90°
2026-04-24 15:59 -35.00375 -60.95615 37138 ft 543 kts 90°
2026-04-24 16:00 -35.00577 -60.86411 37134 ft 543 kts 90°
2026-04-24 16:00 -35.00768 -60.77212 37134 ft 543 kts 90°
2026-04-24 16:01 -35.00956 -60.68070 37123 ft 543 kts 90°
2026-04-24 16:01 -35.01136 -60.58854 37130 ft 543 kts 90°
2026-04-24 16:02 -35.01311 -60.49635 37131 ft 543 kts 90°
2026-04-24 16:02 -35.01477 -60.40407 37115 ft 543 kts 90°
2026-04-24 16:03 -35.01630 -60.31181 37126 ft 544 kts 90°
2026-04-24 16:03 -35.01779 -60.21955 37134 ft 544 kts 90°
2026-04-24 16:04 -35.01927 -60.12781 37117 ft 544 kts 89°
2026-04-24 16:04 -35.02066 -60.03536 37125 ft 545 kts 89°
2026-04-24 16:05 -35.02256 -59.89659 37132 ft 545 kts 89°
2026-04-24 16:06 -35.02429 -59.75784 37131 ft 546 kts 89°
2026-04-24 16:07 -35.02350 -59.61911 37128 ft 542 kts 79°
2026-04-24 16:07 -35.00032 -59.48459 37125 ft 540 kts 73°
2026-04-24 16:08 -34.97582 -59.35106 37125 ft 540 kts 73°
2026-04-24 16:09 -34.95143 -59.21683 37120 ft 540 kts 73°
2026-04-24 16:09 -34.93508 -59.12742 37128 ft 540 kts 73°
2026-04-24 16:11 -34.89351 -58.90404 37128 ft 541 kts 73°
2026-04-24 16:11 -34.87679 -58.81469 37134 ft 541 kts 73°
2026-04-24 16:12 -34.85201 -58.68235 37107 ft 521 kts 73°
2026-04-24 16:12 -34.83587 -58.59667 36600 ft 517 kts 73°
2026-04-24 16:13 -34.82779 -58.55412 36362 ft 515 kts 73°
2026-04-24 16:13 -34.81718 -58.46764 35846 ft 517 kts 79°
2026-04-24 16:14 -34.80820 -58.38041 34507 ft 524 kts 79°
2026-04-24 16:14 -34.80363 -58.33630 33574 ft 529 kts 79°
2026-04-24 16:14 -34.79448 -58.24808 32394 ft 521 kts 80°
2026-04-24 16:15 -34.79150 -58.21919 32034 ft 518 kts 80°
2026-04-24 16:15 -34.78102 -58.11844 30711 ft 509 kts 80°
2026-04-24 16:16 -34.77213 -58.03459 29664 ft 497 kts 80°
2026-04-24 16:16 -34.76772 -57.99305 29013 ft 493 kts 80°
2026-04-24 16:17 -34.75474 -57.87135 27351 ft 476 kts 80°
2026-04-24 16:17 -34.74624 -57.79243 26332 ft 465 kts 80°
2026-04-24 16:18 -34.73789 -57.71539 25359 ft 454 kts 80°
2026-04-24 16:18 -34.72968 -57.64018 24415 ft 444 kts 80°
2026-04-24 16:18 -34.72563 -57.60314 23955 ft 439 kts 80°
2026-04-24 16:19 -34.71783 -57.53025 22978 ft 431 kts 83°
2026-04-24 16:19 -34.71805 -57.49401 22515 ft 428 kts 94°
2026-04-24 16:20 -34.72413 -57.42259 21556 ft 421 kts 95°
2026-04-24 16:20 -34.73005 -57.35232 20564 ft 415 kts 95°
2026-04-24 16:20 -34.73295 -57.31756 20062 ft 412 kts 95°
2026-04-24 16:21 -34.73863 -57.24896 19058 ft 408 kts 95°
2026-04-24 16:21 -34.74145 -57.21472 18552 ft 406 kts 95°
2026-04-24 16:21 -34.74423 -57.18064 17999 ft 404 kts 95°
2026-04-24 16:22 -34.74699 -57.14680 17494 ft 399 kts 95°
2026-04-24 16:22 -34.75241 -57.08028 16488 ft 392 kts 95°
2026-04-24 16:22 -34.75507 -57.04746 15997 ft 389 kts 95°
2026-04-24 16:23 -34.75769 -57.01485 15489 ft 386 kts 95°
2026-04-24 16:23 -34.76029 -56.98243 14991 ft 383 kts 95°
2026-04-24 16:23 -34.76286 -56.95033 14499 ft 380 kts 95°
2026-04-24 16:24 -34.76794 -56.88695 13510 ft 373 kts 95°
2026-04-24 16:24 -34.77041 -56.85583 13053 ft 367 kts 94°
2026-04-24 16:24 -34.77283 -56.82500 12589 ft 363 kts 94°
2026-04-24 16:24 -34.77522 -56.79461 12093 ft 359 kts 94°
2026-04-24 16:25 -34.77760 -56.76459 11630 ft 355 kts 94°
2026-04-24 16:25 -34.77994 -56.73489 11231 ft 350 kts 94°
2026-04-24 16:25 -34.78464 -56.70592 10774 ft 348 kts 107°
2026-04-24 16:26 -34.80118 -56.65217 10282 ft 330 kts 109°
2026-04-24 16:26 -34.80920 -56.62656 10160 ft 318 kts 109°
2026-04-24 16:26 -34.82444 -56.57780 9825 ft 301 kts 109°
2026-04-24 16:27 -34.83182 -56.55413 9507 ft 298 kts 109°
2026-04-24 16:27 -34.83908 -56.53079 8984 ft 293 kts 109°
2026-04-24 16:27 -34.84625 -56.50772 8361 ft 291 kts 109°
2026-04-24 16:27 -34.85338 -56.48479 7853 ft 286 kts 109°
2026-04-24 16:28 -34.86040 -56.46211 7483 ft 287 kts 109°
2026-04-24 16:28 -34.86742 -56.43939 7122 ft 287 kts 109°
2026-04-24 16:28 -34.88139 -56.39416 6499 ft 283 kts 109°
2026-04-24 16:29 -34.88839 -56.37151 6045 ft 287 kts 109°
2026-04-24 16:29 -34.89541 -56.34880 5673 ft 287 kts 109°
2026-04-24 16:29 -34.90941 -56.30351 4969 ft 282 kts 109°
2026-04-24 16:30 -34.92262 -56.26060 4272 ft 259 kts 109°
2026-04-24 16:30 -34.92875 -56.24072 3958 ft 249 kts 109°
2026-04-24 16:30 -34.93479 -56.22111 3651 ft 239 kts 108°
2026-04-24 16:31 -34.93733 -56.20191 3325 ft 226 kts 81°
2026-04-24 16:31 -34.93195 -56.18453 2923 ft 217 kts 53°
2026-04-24 16:31 -34.92322 -56.17019 2637 ft 210 kts 52°
2026-04-24 16:31 -34.91456 -56.15602 2358 ft 207 kts 52°
2026-04-24 16:32 -34.90883 -56.14663 2204 ft 201 kts 52°
2026-04-24 16:32 -34.89825 -56.12920 1856 ft 185 kts 52°
2026-04-24 16:32 -34.89093 -56.11710 1619 ft 170 kts 52°
2026-04-24 16:32 -34.88423 -56.10606 1407 ft 155 kts 52°
2026-04-24 16:33 -34.87811 -56.09599 1220 ft 143 kts 52°
2026-04-24 16:33 -34.87228 -56.08642 1034 ft 138 kts 52°
2026-04-24 16:33 -34.86656 -56.07705 840 ft 138 kts 53°
2026-04-24 16:33 -34.86087 -56.06771 668 ft 136 kts 52°
2026-04-24 16:34 -34.85518 -56.05846 499 ft 137 kts 52°
2026-04-24 16:34 -34.84941 -56.04919 368 ft 137 kts 55°
2026-04-24 16:34 -34.84379 -56.03978 171 ft 137 kts 52°
2026-04-24 16:34 -34.83825 -56.03062 84 ft 126 kts 52°
2026-04-24 16:35 -34.83393 -56.02364 84 ft 83 kts 55°
2026-04-24 16:35 -34.83207 -56.02027 86 ft 23 kts 76°
2026-04-24 16:35 -34.83240 -56.01957 85 ft 0 kts 140°
2026-04-24 16:36 -34.83249 -56.01946 85 ft 4 kts 135°
2026-04-24 16:36 -34.83281 -56.01906 84 ft 9 kts 135°
2026-04-24 16:36 -34.83344 -56.01848 85 ft 14 kts 144°
2026-04-24 16:37 -34.83429 -56.01779 85 ft 9 kts 145°
2026-04-24 16:37 -34.83485 -56.01716 87 ft 13 kts 131°
2026-04-24 16:37 -34.83527 -56.01661 87 ft 3 kts 142°
2026-04-24 16:37 -34.83536 -56.01652 86 ft 0 kts 143°